Weather History for Honolulu, HI

Change the Weather History Date:

Friday, February 8, 2013

  Actual Average Record
Temperature  
Mean Temperature 76 °F 73 °F  
Max Temperature 83 °F 80 °F 86 °F (1958)
Min Temperature 69 °F 66 °F 58 °F (1954)
Degree Days  
Heating Degree Days 0 0  
Month to date heating degree days 0 0  
Since 1 July heating degree days 0 0  
Cooling Degree Days 11 8  
Month to date cooling degree days 79 64  
Year to date cooling degree days 298 318  
Growing Degree Days 26 (Base 50)    
Moisture  
Dew Point 62 °F    
Average Humidity 62    
Maximum Humidity 79    
Minimum Humidity 45    
Precipitation  
Precipitation 0.00 in 0.06 in 2.10 in (1949)
Month to date precipitation T 0.51  
Year to date precipitation 2.42 2.82  
Snow  
Snow 0.00 in - - ()
Month to date snowfall 0.0  
Since 1 July snowfall 0.0  
Snow Depth 0.00 in    
Sea Level Pressure  
Sea Level Pressure 30.09 in    
Wind  
Wind Speed 7 mph (NE)    
Max Wind Speed 16 mph    
Max Gust Speed 22 mph    
Visibility 10 miles    
Events      
T = Trace of Precipitation, MM = Missing Value Source: NWS Daily Summary

Daily Weather History Graph

Daily Weather History Graph

Search for Another Location

Airport:

Trip Planner

Search our weather history database for the weather conditions in past years. The results will help you decide how hot, cold, wet, or windy it might be!

Date:

Astronomy

Feb. 08, 2013 Rise Set
Actual Time 7:05 AM HST 6:26 PM HST
Civil Twilight 6:42 AM HST 6:49 PM HST
Nautical Twilight 6:16 AM HST 7:15 PM HST
Astronomical Twilight 5:50 AM HST 7:41 PM HST
Moon 5:38 AM HST (2/8) 5:14 PM HST (2/8)
Length of Visible Light 12h 06m
Length of Day
11h 20m
Waning Crescent, 3% of the Moon is Illuminated
Feb 8
Waning Crescent
Feb 9
New
Feb 17
First Quarter
Feb 25
Full
Mar 4
Last Quarter

Hourly Weather History & Observations

Time (HST) Temp. Heat Index Dew Point Humidity Pressure Visibility Wind Dir Wind Speed Gust Speed Precip Events Conditions
12:53 AM 73.0 °F - 64.0 °F 73% 30.11 in 10.0 mi ENE 11.5 mph - N/A   Partly Cloudy
1:53 AM 72.0 °F - 64.0 °F 76% 30.10 in 10.0 mi NE 4.6 mph - N/A   Partly Cloudy
2:53 AM 72.0 °F - 63.0 °F 73% 30.09 in 10.0 mi ENE 10.4 mph - N/A   Partly Cloudy
3:53 AM 71.1 °F - 63.0 °F 75% 30.09 in 10.0 mi North 4.6 mph - N/A   Partly Cloudy
4:53 AM 70.0 °F - 63.0 °F 78% 30.09 in 10.0 mi Calm Calm - N/A   Partly Cloudy
5:53 AM 70.0 °F - 63.0 °F 78% 30.09 in 10.0 mi Calm Calm - N/A   Scattered Clouds
6:53 AM 71.1 °F - 64.0 °F 78% 30.10 in 10.0 mi Calm Calm - N/A   Partly Cloudy
7:53 AM 72.0 °F - 63.0 °F 73% 30.12 in 10.0 mi Calm Calm - N/A   Scattered Clouds
8:53 AM 75.0 °F - 63.0 °F 66% 30.13 in 10.0 mi ENE 11.5 mph - N/A   Scattered Clouds
9:53 AM 77.0 °F - 62.1 °F 60% 30.14 in 10.0 mi ENE 5.8 mph - N/A   Scattered Clouds
10:53 AM 79.0 °F - 60.1 °F 52% 30.12 in 10.0 mi ENE 12.7 mph - N/A   Scattered Clouds
11:53 AM 79.0 °F - 59.0 °F 50% 30.11 in 10.0 mi East 4.6 mph - N/A   Scattered Clouds
12:53 PM 82.0 °F 82.1 °F 59.0 °F 45% 30.08 in 10.0 mi East 12.7 mph - N/A   Scattered Clouds
1:53 PM 81.0 °F 81.1 °F 57.9 °F 45% 30.06 in 10.0 mi NE 10.4 mph - N/A   Scattered Clouds
2:53 PM 81.0 °F 81.1 °F 57.9 °F 45% 30.04 in 10.0 mi Variable 3.5 mph - N/A   Scattered Clouds
3:53 PM 80.1 °F 80.6 °F 57.9 °F 47% 30.04 in 10.0 mi East 10.4 mph - N/A   Partly Cloudy
4:53 PM 80.1 °F 80.9 °F 60.1 °F 50% 30.05 in 10.0 mi ENE 10.4 mph - N/A   Partly Cloudy
5:53 PM 77.0 °F - 62.1 °F 60% 30.06 in 10.0 mi ENE 11.5 mph - N/A   Partly Cloudy
6:53 PM 75.0 °F - 62.1 °F 64% 30.08 in 10.0 mi NNE 8.1 mph - N/A   Partly Cloudy
7:53 PM 73.0 °F - 62.1 °F 68% 30.09 in 10.0 mi NE 8.1 mph - N/A   Partly Cloudy
8:53 PM 73.0 °F - 63.0 °F 71% 30.10 in 10.0 mi NE 8.1 mph - N/A   Partly Cloudy
9:53 PM 73.0 °F - 63.0 °F 71% 30.10 in 10.0 mi NE 4.6 mph - N/A   Partly Cloudy
10:53 PM 71.1 °F - 62.1 °F 73% 30.11 in 10.0 mi North 3.5 mph - N/A   Partly Cloudy
11:53 PM 70.0 °F - 63.0 °F 78% 30.10 in 10.0 mi Calm Calm - N/A   Partly Cloudy